Temp
13 12 12 12 11 10 10 10 10 11 11 12 11 10 10 10 11 12 12 12 12 12 11 11 10 10 10 9 9 9 8 7
13 12 12 12 12 11 10 10 10 11 10 10 11 11 10 10 11 12 12 11 12 11 11 11 10 10 9 9 9 8 8 8
14 13 13 13 12 11 11 11 11 11 11 11 11 11 11 11 10 11 11 12 12 11 11 11 10 8 9 9 8 8 6 7
15 14 13 13 12 12 12 11 11 11 11 10 10 11 10 10 10 12 11 11 11 11 11 10 10 9 9 8 8 8 7 6
17 15 14 13 13 12 12 12 12 11 11 11 11 11 11 11 10 11 12 11 11 11 11 10 10 9 8 8 8 7 7 6
18 17 16 14 13 13 12 12 12 11 11 11 11 11 12 12 10 10 11 11 11 11 10 9 9 9 8 8 8 7 7 6
19 18 17 16 15 13 12 12 12 12 11 11 11 11 12 12 10 10 12 11 11 10 10 9 8 8 8 8 7 7 6 7
19 18 17 16 15 14 14 15 13 13 13 14 14 13 12 11 11 11 11 11 11 10 9 9 8 7 8 7 7 6 6 5
19 18 18 17 16 14 14 16 15 14 15 15 14 13 13 12 11 11 12 11 10 9 9 9 8 7 7 6 6 5 4 3
19 19 18 17 16 14 14 14 13 13 15 15 14 14 14 12 11 11 11 10 9 9 9 8 8 7 7 6 4 4 3 2
17 17 17 17 16 14 13 13 13 12 13 14 14 13 12 12 11 12 10 10 9 9 9 8 7 7 5 4 3 2 1 0
16 16 15 15 14 14 13 13 13 12 12 12 13 13 13 12 11 10 10 10 10 10 9 8 7 7 4 3 2 1 -1 0
16 15 15 14 14 13 13 13 13 13 12 11 11 11 11 11 10 10 10 9 9 9 8 8 7 5 3 2 1 -1 -0 -0
17 15 15 15 14 13 13 13 12 12 12 13 13 13 13 12 11 11 9 9 9 8 8 6 5 2 1 2 1 0 -1 -1
17 16 15 14 13 13 12 13 13 14 13 13 13 12 11 10 9 9 9 8 8 7 6 4 2 1 1 0 1 -0 -0 -1
15 15 15 14 13 12 12 11 13 13 12 11 10 9 9 8 8 8 8 7 6 6 4 2 1 1 1 1 -0 -0 -1 -1
13 13 12 12 12 11 12 12 12 11 10 10 9 8 8 8 7 7 6 5 4 3 2 1 1 1 0 -0 -0 -1 -1 -2
11 10 11 13 13 13 13 12 11 11 10 9 8 7 7 6 5 4 4 3 3 2 1 1 0 0 0 -1 -1 -2 -3 -2
9 11 12 12 12 12 12 11 10 9 8 7 7 6 5 4 3 3 2 2 1 1 0 0 -0 -1 -1 -1 -2 -2 -3 -3
Height
1522 1525 1529 1533 1536 1539 1541 1545 1547 1550 1552 1555 1558 1562 1564 1565 1567 1569 1571 1572 1573 1575 1576 1576 1577 1578 1579 1579 1581 1580 1581 1583
1521 1525 1528 1531 1535 1537 1539 1542 1545 1547 1551 1553 1556 1558 1560 1563 1564 1566 1568 1569 1570 1572 1572 1572 1574 1574 1576 1576 1576 1577 1578 1579
1519 1522 1525 1528 1531 1533 1536 1539 1542 1545 1549 1551 1554 1556 1559 1561 1562 1563 1564 1565 1566 1568 1568 1569 1570 1571 1571 1572 1574 1575 1576 1575
1514 1517 1519 1522 1525 1529 1532 1536 1540 1543 1546 1548 1550 1552 1555 1557 1557 1558 1559 1561 1563 1563 1565 1565 1566 1567 1568 1569 1570 1572 1573 1571
1508 1512 1515 1517 1521 1525 1528 1532 1535 1538 1541 1545 1545 1547 1549 1551 1553 1554 1555 1557 1558 1559 1560 1561 1562 1563 1564 1565 1566 1568 1569 1568
1500 1504 1508 1512 1516 1519 1523 1527 1529 1533 1536 1539 1541 1543 1546 1549 1550 1550 1549 1551 1553 1554 1555 1556 1557 1558 1559 1560 1561 1562 1563 1563
1494 1498 1504 1507 1511 1513 1516 1520 1523 1527 1529 1532 1534 1537 1540 1543 1543 1543 1544 1545 1547 1548 1550 1552 1553 1554 1554 1555 1556 1556 1556 1556
1487 1492 1495 1500 1503 1506 1509 1513 1517 1520 1522 1525 1528 1530 1533 1535 1536 1538 1538 1539 1540 1542 1544 1545 1547 1548 1549 1550 1550 1552 1552 1549
1479 1483 1488 1493 1497 1500 1503 1506 1510 1513 1515 1519 1522 1525 1527 1528 1530 1531 1531 1533 1535 1537 1538 1539 1540 1542 1542 1545 1546 1546 1547 1548
1472 1477 1482 1487 1491 1494 1496 1501 1505 1509 1510 1513 1516 1519 1520 1521 1524 1525 1526 1529 1529 1530 1532 1533 1534 1534 1537 1538 1540 1540 1540 1544
1469 1472 1476 1481 1486 1490 1492 1496 1500 1504 1506 1508 1510 1511 1513 1514 1515 1517 1519 1521 1522 1524 1526 1527 1528 1529 1530 1533 1535 1535 1535 1538
1466 1469 1472 1476 1481 1484 1486 1490 1495 1499 1501 1503 1505 1506 1508 1509 1509 1511 1513 1514 1515 1517 1519 1519 1521 1522 1524 1527 1527 1531 1535 1534
1466 1468 1470 1473 1477 1480 1483 1488 1492 1496 1498 1499 1501 1502 1503 1504 1505 1506 1507 1508 1510 1512 1513 1512 1512 1516 1518 1521 1523 1525 1528 1529
1467 1468 1470 1472 1475 1478 1482 1485 1488 1491 1493 1494 1495 1497 1498 1499 1500 1501 1502 1504 1505 1506 1507 1507 1509 1513 1516 1516 1518 1523 1523 1523
1467 1468 1470 1472 1474 1477 1480 1481 1483 1486 1488 1490 1491 1492 1493 1494 1495 1497 1498 1499 1500 1502 1502 1504 1507 1510 1512 1514 1516 1518 1517 1516
1464 1467 1469 1471 1473 1475 1476 1478 1480 1481 1483 1485 1487 1488 1489 1491 1492 1493 1495 1496 1497 1499 1500 1503 1506 1509 1511 1512 1513 1512 1511 1509
1461 1464 1466 1467 1470 1472 1474 1475 1478 1479 1481 1483 1484 1486 1487 1489 1490 1492 1493 1495 1497 1499 1501 1504 1507 1508 1508 1508 1507 1505 1505 1505
1459 1461 1463 1465 1468 1470 1473 1475 1477 1479 1480 1482 1484 1485 1486 1487 1489 1491 1493 1495 1497 1500 1502 1503 1504 1504 1503 1502 1502 1501 1500 1500
1459 1461 1464 1466 1468 1470 1472 1474 1477 1479 1480 1482 1483 1485 1486 1488 1490 1492 1495 1496 1498 1499 1500 1500 1499 1498 1498 1498 1498 1496 1495 1494
Wind_Speed
20 21 24 25 26 26 26 25 21 21 21 21 19 21 20 19 20 20 19 18 17 16 15 13 14 16 17 15 14 11 5 4
21 23 25 26 26 27 28 25 21 21 19 19 19 20 20 21 21 22 20 18 18 17 15 16 18 17 17 17 15 10 7 6
23 25 26 27 28 29 28 27 23 22 20 19 18 19 20 20 20 23 21 20 18 18 19 18 17 17 20 19 16 11 8 9
23 25 28 28 30 30 29 28 24 23 21 19 18 17 17 21 22 25 25 21 20 22 22 20 20 22 22 21 18 14 9 9
24 26 28 29 29 28 28 27 26 25 23 21 23 22 21 20 20 22 25 26 25 24 24 23 23 24 23 23 20 16 13 7
28 28 28 28 28 29 29 28 27 26 25 25 22 22 19 18 21 21 26 27 27 27 27 26 25 26 27 26 24 19 16 11
27 27 26 26 27 28 28 29 28 27 26 27 26 25 24 22 22 22 26 30 29 28 28 27 27 28 29 28 25 23 19 20
29 28 30 29 29 29 29 30 30 29 30 30 30 31 28 29 28 27 29 29 29 28 30 31 31 31 31 30 27 24 23 20
32 29 29 28 28 27 29 31 32 30 31 30 31 31 32 31 27 30 32 29 28 27 30 33 32 33 33 30 28 25 22 15
22 27 29 28 25 27 28 27 26 27 32 32 29 28 26 27 27 32 29 27 28 29 28 32 33 34 34 32 28 25 15 14
11 14 19 23 23 22 22 22 23 23 25 25 25 25 23 23 25 26 28 29 30 30 26 28 35 35 34 30 23 18 18 17
6 8 9 12 15 17 18 17 17 18 18 17 17 17 18 19 23 24 27 28 30 25 29 34 35 34 34 26 24 21 15 19
4 7 9 10 11 12 12 13 14 15 14 14 13 13 16 17 19 21 22 25 25 28 31 32 37 36 32 26 22 21 23 28
5 7 8 9 10 11 11 12 11 10 11 13 15 17 18 19 20 22 21 20 21 22 27 29 32 29 27 25 25 20 25 19
8 8 8 8 8 8 8 9 10 11 11 14 16 17 16 17 17 15 15 15 16 18 22 22 22 26 25 18 18 27 27 21
10 10 9 8 7 7 7 7 9 9 10 11 10 9 8 9 8 8 9 12 14 15 14 15 19 21 19 23 27 29 24 25
10 9 9 9 8 8 6 5 5 4 3 3 2 2 1 2 3 4 5 7 7 8 12 12 15 19 23 27 26 22 20 19
15 15 15 15 14 12 10 7 6 4 3 2 3 2 2 2 3 4 6 7 8 7 9 13 17 22 22 20 16 17 19 20
16 17 17 16 14 12 11 10 9 9 8 8 7 5 4 4 3 4 4 3 5 10 12 16 15 14 12 12 16 21 21 21
Wind_Direction
178 179 180 179 182 185 184 185 189 195 199 200 198 201 202 207 211 216 218 225 227 221 229 241 234 234 237 232 231 236 225 218
185 182 182 184 188 189 191 194 200 203 202 201 200 204 205 209 213 218 222 228 223 223 236 249 240 242 229 230 232 242 243 262
193 193 195 196 200 202 203 207 208 208 208 206 206 207 212 214 216 223 222 224 227 235 244 248 244 228 232 232 234 230 225 257
202 202 202 203 206 207 208 210 213 213 209 210 210 209 211 213 220 227 226 228 235 242 249 247 242 237 235 233 235 233 226 255
208 209 211 210 210 209 210 212 212 214 211 214 212 212 215 221 225 230 236 230 234 242 245 243 240 235 229 234 237 236 241 239
212 211 212 213 211 212 213 212 213 213 214 215 220 220 225 230 226 226 235 239 239 241 242 239 235 235 236 236 242 239 250 271
217 216 214 215 213 212 214 213 216 216 222 227 226 227 223 224 225 233 244 244 244 243 241 237 237 238 239 239 241 241 252 284
221 215 213 213 213 212 218 221 219 222 227 234 236 238 236 237 244 246 246 249 248 246 247 239 237 238 240 240 242 247 262 276
222 221 216 217 215 216 219 224 225 224 231 236 236 240 243 241 241 246 250 252 253 257 254 244 240 240 241 243 245 248 269 255
220 222 222 222 219 218 222 221 221 222 235 238 241 249 252 244 240 247 254 255 254 256 256 249 247 244 242 240 241 255 250 239
213 217 218 219 221 219 216 217 218 220 233 245 251 251 255 254 253 257 253 255 259 260 254 255 248 247 239 234 246 237 242 230
180 185 196 202 205 209 213 219 215 217 228 236 250 255 261 261 262 262 258 259 262 264 253 244 245 246 233 231 237 245 224 269
151 152 158 166 180 190 198 204 208 212 216 229 238 251 257 260 265 269 267 265 262 256 253 245 243 240 229 231 242 222 250 282
161 151 151 157 165 175 185 193 196 204 214 229 242 255 261 259 260 263 267 273 274 263 254 246 241 227 226 241 253 261 271 260
193 177 169 161 164 172 179 200 206 225 239 249 258 259 263 264 270 270 265 256 248 249 248 248 233 224 237 253 266 280 268 265
195 187 174 159 153 168 176 192 219 234 244 253 257 262 270 273 263 253 251 247 248 250 249 238 227 239 268 273 275 283 277 273
155 151 149 158 159 141 166 175 189 197 194 225 253 274 259 236 240 242 242 236 240 225 228 231 259 272 273 276 277 273 271 270
130 126 127 127 131 133 136 133 131 130 128 126 129 132 155 161 179 196 222 222 238 240 263 270 271 276 277 279 273 271 273 273
129 130 129 128 128 127 123 117 113 107 103 100 99 103 110 138 178 201 196 208 245 274 278 284 283 284 278 271 278 280 278 274